Date String (YYYY-MM-DD hh:mm:ss) UTC,Instrument flags,Ambient pressure (hPa),Sample flow (lpm),Bypass flow (lpm),Sample temperature (°C),Ambient temperature (°C),ASC tube jacket temperature (°C),LED temperature (°C),Box temperature (°C),Sample RH (%),Span deviation,Mass concentration (μg/m³),Mass concentration (μg/m³),Mass concentration (μg/m³)
DateTimeUTC,F1_M11,P_M11,Q1_M11,Q2_M11,T1_M11,T2_M11,T3_M11,T4_M11,T5_M11,U1_M11,ZSPAN_M11,X0_M11,X2_M11,X1_M11
2023-02-11 09:00:00,,0827.5,4.99,0.00,22.3,20.8,00.0,31.2,24.0,08.8,0000.0,0012.89,0004.46,0003.54
2023-02-11 09:01:00,,0827.6,5.03,0.00,22.3,20.7,00.0,31.2,24.0,08.8,0000.0,0013.25,0004.49,0003.55
2023-02-11 09:02:00,,0827.5,4.99,0.00,22.3,20.7,00.0,31.2,24.0,08.8,0000.0,0012.72,0004.48,0003.56
2023-02-11 09:03:00,,0827.5,5.00,0.00,22.3,20.6,00.0,31.2,24.0,08.8,0000.0,0012.53,0004.48,0003.58
2023-02-11 09:04:00,,0827.5,5.02,0.00,22.3,20.6,00.0,31.1,24.0,08.8,0000.0,0013.72,0004.56,0003.64
2023-02-11 09:05:00,,0827.5,5.01,0.00,22.2,20.5,00.0,31.1,24.0,08.8,0000.0,0013.39,0004.56,0003.67
2023-02-11 09:06:00,,0827.5,5.00,0.00,22.2,20.4,00.0,31.1,23.9,08.8,0000.0,0013.03,0004.60,0003.70
2023-02-11 09:07:00,,0827.5,5.02,0.00,22.2,20.4,00.0,31.1,23.9,08.8,0000.0,0014.15,0004.71,0003.76
2023-02-11 09:08:00,,0827.4,5.02,0.00,22.2,21.0,00.0,31.1,24.0,08.8,0000.0,0015.45,0004.85,0003.84
2023-02-11 09:09:00,,0827.4,5.02,0.00,22.3,22.2,00.0,31.1,24.3,08.8,0000.0,0016.33,0004.96,0003.90
2023-02-11 09:10:00,,0827.4,4.99,0.00,22.4,23.1,00.0,31.1,24.5,08.8,0000.0,0017.08,0005.03,0003.92
2023-02-11 09:11:00,,0827.5,4.94,0.00,22.5,22.8,00.0,31.1,24.5,08.9,0000.0,0017.73,0005.06,0003.95
2023-02-11 09:12:00,,0827.4,5.00,0.00,22.5,22.2,00.0,31.2,24.4,08.9,0000.0,0018.18,0005.07,0003.99
2023-02-11 09:13:00,,0827.4,5.04,0.00,22.5,21.8,00.0,31.2,24.3,08.9,0000.0,0018.33,0005.09,0004.04
2023-02-11 09:14:00,,0827.4,5.04,0.00,22.5,21.5,00.0,31.2,24.3,08.9,0000.0,0018.39,0005.10,0004.07
2023-02-11 09:15:00,,0827.3,5.03,0.00,22.5,21.3,00.0,31.2,24.3,08.9,0000.0,0017.42,0005.07,0004.05
2023-02-11 09:16:00,,0827.4,5.00,0.00,22.5,21.1,00.0,31.3,24.2,08.9,0000.0,0017.29,0005.06,0004.04
2023-02-11 09:17:00,,0827.4,5.00,0.00,22.4,21.0,00.0,31.3,24.2,09.0,0000.0,0017.87,0005.06,0004.02
2023-02-11 09:18:00,,0827.4,4.99,0.00,22.4,20.9,00.0,31.3,24.1,09.0,0000.0,0017.66,0004.92,0003.97
2023-02-11 09:19:00,,0827.4,5.00,0.00,22.4,20.7,00.0,31.3,24.1,09.0,0000.0,0016.43,0004.84,0003.95
2023-02-11 09:20:00,,0827.4,4.98,0.00,22.4,20.6,00.0,31.2,24.1,09.0,0000.0,0015.31,0004.75,0003.92
2023-02-11 09:21:00,,0827.4,4.99,0.00,22.3,20.6,00.0,31.2,24.0,09.0,0000.0,0014.40,0004.67,0003.90
2023-02-11 09:22:00,,0827.4,5.01,0.00,22.3,20.5,00.0,31.2,24.0,09.0,0000.0,0013.90,0004.64,0003.84
2023-02-11 09:23:00,,0827.4,5.01,0.00,22.3,20.5,00.0,31.2,24.1,09.0,0000.0,0012.51,0004.58,0003.76
2023-02-11 09:24:00,,0827.4,5.01,0.00,22.3,20.6,00.0,31.2,24.0,08.9,0000.0,0012.29,0004.55,0003.69
2023-02-11 09:25:00,,0827.3,4.99,0.00,22.3,20.5,00.0,31.2,24.0,08.9,0000.0,0011.96,0004.49,0003.63
2023-02-11 09:26:00,,0827.3,4.99,0.00,22.3,20.5,00.0,31.2,24.0,08.8,0000.0,0012.88,0004.43,0003.58
2023-02-11 09:27:00,,0827.3,4.97,0.00,22.2,20.8,00.0,31.1,24.0,08.8,0000.0,0013.02,0004.39,0003.53
2023-02-11 09:28:00,,0827.3,4.99,0.00,22.3,22.0,00.0,31.1,24.3,08.8,0000.0,0012.19,0004.34,0003.48
2023-02-11 09:29:00,,0827.3,5.02,0.00,22.5,23.1,00.0,31.1,24.6,08.7,0000.0,0011.69,0004.33,0003.43
2023-02-11 09:30:00,,0827.3,4.98,0.00,22.6,23.0,00.0,31.2,24.6,08.7,0000.0,0012.37,0004.24,0003.34
2023-02-11 09:31:00,,0827.3,5.01,0.00,22.6,22.5,00.0,31.2,24.6,08.7,0000.0,0012.36,0004.17,0003.27
2023-02-11 09:32:00,,0827.3,5.02,0.00,22.6,22.0,00.0,31.3,24.4,08.8,0000.0,0012.73,0004.15,0003.23
2023-02-11 09:33:00,,0827.3,4.99,0.00,22.5,21.5,00.0,31.3,24.3,08.8,0000.0,0012.83,0004.10,0003.22
2023-02-11 09:34:00,,0827.4,5.00,0.00,22.5,21.1,00.0,31.3,24.1,08.8,0000.0,0013.19,0004.16,0003.24
2023-02-11 09:35:00,,0827.2,5.00,0.00,22.4,20.8,00.0,31.3,24.0,08.8,0000.0,0013.48,0004.19,0003.26
2023-02-11 09:36:00,,0827.3,5.01,0.00,22.4,20.6,00.0,31.3,24.0,08.8,0000.0,0014.53,0004.25,0003.27
2023-02-11 09:37:00,,0827.2,5.00,0.00,22.3,20.5,00.0,31.3,24.0,08.8,0000.0,0013.77,0004.29,0003.28
2023-02-11 09:38:00,,0827.3,5.01,0.00,22.3,20.4,00.0,31.2,23.9,08.8,0000.0,0013.88,0004.32,0003.29
2023-02-11 09:39:00,,0827.3,5.02,0.00,22.2,20.2,00.0,31.2,23.8,08.8,0000.0,0013.74,0004.30,0003.29
2023-02-11 09:40:00,,0827.3,5.00,0.00,22.1,20.2,00.0,31.2,23.7,08.9,0000.0,0013.09,0004.32,0003.29
2023-02-11 09:41:00,,0827.3,4.99,0.00,22.2,21.3,00.0,31.1,24.0,08.8,0000.0,0012.55,0004.36,0003.29
2023-02-11 09:42:00,,0827.2,4.99,0.00,22.3,22.5,00.0,31.1,24.3,08.9,0000.0,0012.45,0004.35,0003.28
2023-02-11 09:43:00,,0827.2,4.97,0.00,22.5,22.9,00.0,31.2,24.5,08.9,0000.0,0011.81,0004.24,0003.21
2023-02-11 09:44:00,,0827.2,4.99,0.00,22.5,22.5,00.0,31.2,24.4,08.8,0000.0,0011.17,0004.14,0003.15
2023-02-11 09:45:00,,0827.2,4.99,0.00,22.5,22.0,00.0,31.2,24.4,08.8,0000.0,0010.57,0003.99,0003.05
2023-02-11 09:46:00,,0827.2,5.07,0.00,22.5,21.6,00.0,31.3,24.3,08.8,0000.0,0010.49,0003.91,0002.94
2023-02-11 09:47:00,,0827.2,5.01,0.00,22.5,21.2,00.0,31.3,24.2,08.8,0000.0,0009.26,0003.76,0002.80
2023-02-11 09:48:00,,0827.2,4.99,0.00,22.4,21.0,00.0,31.3,24.1,08.9,0000.0,0009.10,0003.62,0002.67
2023-02-11 09:49:00,,0827.2,5.01,0.00,22.4,20.8,00.0,31.3,24.0,08.9,0000.0,0008.91,0003.46,0002.52
2023-02-11 09:50:00,,0827.2,5.02,0.00,22.3,20.7,00.0,31.3,24.0,08.9,0000.0,0008.76,0003.37,0002.43
2023-02-11 09:51:00,,0827.3,4.96,0.00,22.3,20.5,00.0,31.3,24.0,08.9,0000.0,0008.79,0003.32,0002.40
2023-02-11 09:52:00,,0827.2,5.01,0.00,22.3,20.4,00.0,31.2,23.9,08.9,0000.0,0008.87,0003.26,0002.41
2023-02-11 09:53:00,,0827.2,5.02,0.00,22.3,20.4,00.0,31.2,23.9,09.0,0000.0,0008.98,0003.33,0002.49
2023-02-11 09:54:00,,0827.1,4.97,0.00,22.2,20.4,00.0,31.2,24.0,08.9,0000.0,0009.20,0003.43,0002.63
2023-02-11 09:55:00,,0827.1,4.97,0.00,22.2,20.4,00.0,31.2,24.0,08.9,0000.0,0009.79,0003.53,0002.77
2023-02-11 09:56:00,,0827.1,4.97,0.00,22.2,20.5,00.0,31.2,24.0,08.9,0000.0,0010.17,0003.63,0002.87
2023-02-11 09:57:00,,0827.1,5.01,0.00,22.2,20.5,00.0,31.2,23.9,08.9,0000.0,0010.12,0003.69,0002.95
2023-02-11 09:58:00,,0827.1,5.03,0.00,22.2,20.5,00.0,31.1,23.9,08.9,0000.0,0010.40,0003.79,0003.09
2023-02-11 09:59:00,,0827.1,4.99,0.00,22.3,21.4,00.0,31.1,24.1,08.9,0000.0,0010.80,0003.91,0003.18
